Regional Weather Roundup
Issued by NWS

Home | Current Version | Previous Version | Text Only | Print | Product List | Glossary Off
Versions: 1 2 3 4 5 6 7 8 9 10 11 12 13 14 15 16 17 18 19 20 21 22 23 24 25 26 27 28 29 30 31 32 33 34 35 36 37 38 39 40 41 42 43 44 45 46 47 48 49 50

000
ASUS43 KFSD 230402
RWRSD

WEATHER ROUNDUP FOR SOUTH DAKOTA
NATIONAL WEATHER SERVICE SIOUX FALLS SD
1100 PM CDT WED MAR 22 2017

NOTE: "FAIR" INDICATES FEW OR NO CLOUDS BELOW 12,000 FEET WITH NO
SIGNIFICANT WEATHER AND/OR OBSTRUCTIONS TO VISIBILITY.


SDZ001>005-009-010-012>017-230500-
NORTHWEST AND NORTH CENTRAL SOUTH DAKOTA

CITY           SKY/WX    TMP DP  RH WIND       PRES   REMARKS
BUFFALO          N/A     50  38  63 NE8       29.70F
FAITH            N/A     46  36  68 SE14      29.74
MOBRIDGE       PTCLDY    40  26  57 SE17      29.82F
$$

SDZ012>016-024>037-041>051-057-063-072>074-230500-
SOUTHWEST AND SOUTH CENTRAL SOUTH DAKOTA

CITY           SKY/WX    TMP DP  RH WIND       PRES   REMARKS
RAPID CTY ARPT CLEAR     43  38  82 CALM      29.77F
PIERRE         CLOUDY    47  30  51 SE16G24   29.86F
CUSTER         CLOUDY    41  36  82 NW5       29.84F
ELLSWORTH AFB  CLEAR     47  41  82 SW6       29.77S
PHILIP         CLEAR     52  35  52 S5        29.79S
PINE RIDGE     PTCLDY    53  37  54 S24G36    29.80F
SPEARFISH      FAIR      46  41  81 S7        29.77F
WINNER         FAIR      48  29  47 S24G31    29.91F
$$

SDZ004>011-016>023-039-040-230500-
NORTHEAST SOUTH DAKOTA

CITY           SKY/WX    TMP DP  RH WIND       PRES   REMARKS
ABERDEEN       CLOUDY    34  25  69 S18       29.99F WCI  23
WATERTOWN      MOCLDY    35  24  64 S21       30.04F WCI  24
BROOKINGS      CLOUDY    36  25  64 S18G26    30.08S
SISSETON         N/A     34  27  75 S21       30.07F WCI  22
$$

SDZ017-020-022-023-036>040-048>070-230500-
SOUTHEAST SOUTH DAKOTA

CITY           SKY/WX    TMP DP  RH WIND       PRES   REMARKS
SIOUX FALLS    CLOUDY    39  27  62 S22G30    30.10F
HURON          PTCLDY    39  28  64 S18G29    30.00F
CHAMBERLAIN    CLOUDY    45  27  50 SE12      29.94F
MITCHELL       CLOUDY    42  29  59 SE26G37   30.03F
YANKTON        CLOUDY    41  25  52 SE15      30.06F
$$

ABBREVIATIONS USED IN REMARKS
   TC - TEMPERATURE IN CELSIUS
  WCI - WIND CHILL INDEX
   HX - HEAT INDEX
  VSB - VISIBILITY




USA.gov is the U.S. government's official web portal to all federal, state and local government web resources and services.